Torna al catalogo

STARLINK-5690

AttivoComunicazioniVLEO
NORAD 55480·PAYLOAD·🇺🇸 United States

Lanciato Feb 2, 2023 da Cape Canaveral Space Force Station

Loading…

Prossimi Passaggi (prossime 24 ore)

TLE

AggiornatoSource: CelesTrak SupGP

Epoca: Sep 15, 2026, 02:06 UTC

1 55480C 23015AH  26258.08798611  .00006627  00000+0  24008-3 0  2581
2 55480  43.0033 349.9301 0001408 269.7427  48.6324 15.27569976    11

Traccia STARLINK-5690 in tempo reale con AllMySat

Download on the App Store